This is the latest recevied weather packets stored in our database for station/object I2HLY-4. If no packets are shown the sender has not sent any weather packets the latest 10 day(s).
| Time | Temp. | Humidity | Pressure | Rain* | Wind** | Luminosity | Snow |
|---|---|---|---|---|---|---|---|
| 1777548733 | 8.89° C | 75% | 1025.3 hPa | 0 mm | - | - | - |
| 1777547850 | 8.33° C | 77% | 1025.4 hPa | 0 mm | - | - | - |
| 1777546945 | 7.78° C | 78% | 1025.4 hPa | 0 mm | - | - | - |
| 1777546038 | 7.78° C | 79% | 1025.5 hPa | 0 mm | - | - | - |
| 1777545137 | 7.22° C | 86% | 1025.4 hPa | 0 mm | - | - | - |
| 1777544250 | 7.22° C | 87% | 1025.4 hPa | 0 mm | - | - | - |
| 1777543343 | 6.67° C | 89% | 1025.3 hPa | 0 mm | - | - | - |
| 1777542441 | 6.11° C | 91% | 1025.2 hPa | 0 mm | - | - | - |
| 1777541534 | 6.11° C | 92% | 1025.2 hPa | 0 mm | - | - | - |
| 1777540633 | 6.67° C | 94% | 1025.1 hPa | 0 mm | - | - | - |
| 1777539745 | 6.67° C | 96% | 1025 hPa | 0 mm | - | - | - |
| 1777538841 | 7.22° C | 95% | 1024.8 hPa | 0 mm | - | - | - |
| 1777537937 | 6.67° C | 95% | 1024.6 hPa | 0 mm | - | - | - |
| 1777537050 | 6.67° C | 95% | 1024.4 hPa | 0 mm | - | - | - |
| 1777536142 | 7.22° C | 96% | 1024.2 hPa | 0 mm | - | - | - |
| 1777535242 | 7.78° C | 97% | 1024 hPa | 0 mm | - | - | - |
| 1777534335 | 7.78° C | 97% | 1023.9 hPa | 0 mm | - | - | - |
| 1777533432 | 7.78° C | 97% | 1023.8 hPa | 0 mm | - | - | - |
| 1777532545 | 7.78° C | 98% | 1023.7 hPa | 0 mm | - | - | - |
| 1777531632 | 7.78° C | 98% | 1023.5 hPa | 2.03 mm | - | - | - |
| 1777530750 | 7.78° C | 98% | 1023.5 hPa | 2.03 mm | - | - | - |
| 1777529845 | 7.78° C | 98% | 1023.5 hPa | 3.05 mm | - | - | - |
| 1777528938 | 7.22° C | 97% | 1023.4 hPa | 2.03 mm | - | - | - |
| 1777528036 | 7.22° C | 97% | 1023.3 hPa | 1.02 mm | - | - | - |
| 1777527150 | 7.22° C | 97% | 1023.2 hPa | 1.02 mm | - | - | - |
* Rain latest hour (hover to see other rain measurements)
** Current wind speed in m/s (hover to see current wind gust speed)